Location: Staunton
(38.1490°N, 79.0720°W)
Time: 11:29:34
(UTC-04:00)

ISS - Pass Details

Date: 27 May 2020
Orbit: 417 x 420 km, 51.6° (Epoch: 26 May)

Event Time Altitude Azimuth Distance (km) Brightness Sun altitude
Rises 22:34:19 0° 318° (NW) 2,364 1.7 -19.6°
Reaches altitude 10° 22:36:55 10° 340° (NNW) 1,499 0.1 -19.9°
Maximum altitude 22:39:16 17° 24° (NNE) 1,128 -1.3 -20.2°
Enters shadow 22:40:33 15° 52° (NE) 1,250 -1.4 -20.4°
